Weather reports worldwide

Advertisment
Asturias/Aviles, Spain (8011): temperature & dewpoint: 12.01.2018 07:00:00 - 18.01.2018 07:00:00 (CET)Asturias/Aviles, Spain (8011): wind speed: 12.01.2018 07:00:00 - 18.01.2018 07:00:00 (CET)Asturias/Aviles, Spain (8011): wind direction: 12.01.2018 07:00:00 - 18.01.2018 07:00:00 (CET)Asturias/Aviles, Spain (8011): reduced air pressure: 12.01.2018 07:00:00 - 18.01.2018 07:00:00 (CET)Asturias/Aviles, Spain (8011): visibility: 12.01.2018 07:00:00 - 18.01.2018 07:00:00 (CET)
Date & Time tt [°C] td [°C] ff [km/h] ff [kn] dd ppp [hPa] vv [km]
18.01.2018 07:00:00 - - - - - - -
18.01.2018 06:00:00 3,7 1,6 8 4 SSW 1025,5 -
18.01.2018 05:00:00 4,6 2,3 5 3 SSW 1025,7 -
18.01.2018 04:00:00 5,3 2,6 8 4 SSW 1026,4 -
18.01.2018 03:00:00 5,4 2,9 9 5 SW 1026,9 -
18.01.2018 02:00:00 5,7 3,2 13 7 SSW 1027,7 -
18.01.2018 01:00:00 6,5 3,6 11 6 SW 1028,6 -
18.01.2018 00:00:00 6,8 3,9 9 5 SW 1028,7 -
17.01.2018 23:00:00 7,3 4,6 9 5 SW 1029,0 -
17.01.2018 22:00:00 8,0 5,3 8 4 WSW 1029,0 12
17.01.2018 21:00:00 9,3 6,6 9 5 W 1029,0 -
17.01.2018 20:00:00 9,4 6,7 8 4 W 1028,9 -
17.01.2018 19:00:00 10,2 6,9 9 5 W 1028,9 5
17.01.2018 18:00:00 11,1 7,0 13 7 WNW 1029,0 -
17.01.2018 17:00:00 12,2 6,5 15 8 WNW 1029,4 -
17.01.2018 16:00:00 13,0 5,3 16 9 WNW 1029,5 8
17.01.2018 15:00:00 12,5 6,0 18 10 WNW 1030,0 -
17.01.2018 14:00:00 12,6 6,3 21 11 WNW 1030,5 -
17.01.2018 13:00:00 12,7 6,8 22 12 WNW 1030,8 9
17.01.2018 12:00:00 11,6 6,6 22 12 WNW 1031,2 -
17.01.2018 11:00:00 11,7 5,8 13 7 W 1030,9 -
17.01.2018 10:00:00 10,7 6,2 21 11 W 1030,6 -
17.01.2018 09:00:00 10,4 6,3 18 10 W 1029,9 -
17.01.2018 08:00:00 10,9 5,4 18 10 W 1029,3 -
17.01.2018 07:00:00 11,0 6,1 22 12 W 1028,8 15
17.01.2018 06:00:00 11,2 6,3 28 15 W 1028,7 -
17.01.2018 05:00:00 11,6 8,0 34 18 WNW 1028,2 -
17.01.2018 04:00:00 11,5 7,8 29 16 WNW 1028,2 -
17.01.2018 03:00:00 12,2 7,2 46 25 WNW 1027,3 -
17.01.2018 02:00:00 12,4 9,8 37 20 WNW 1026,9 -
17.01.2018 01:00:00 12,6 10,0 35 19 WNW 1026,2 -
17.01.2018 00:00:00 12,6 10,3 22 12 W 1025,5 -
16.01.2018 23:00:00 12,7 10,6 42 23 WNW 1025,4 -
16.01.2018 22:00:00 13,4 10,8 31 17 WNW 1024,4 9
16.01.2018 21:00:00 14,5 10,5 26 14 W 1023,7 -
16.01.2018 20:00:00 15,1 10,1 24 13 W 1023,3 -
16.01.2018 19:00:00 16,6 9,3 34 18 W 1022,8 45
16.01.2018 18:00:00 13,9 11,2 18 10 WNW 1022,8 -
16.01.2018 17:00:00 15,4 10,8 21 11 W 1022,5 -
16.01.2018 16:00:00 16,9 10,3 18 10 WNW 1022,1 75
16.01.2018 15:00:00 15,5 10,9 18 10 W 1023,0 -
16.01.2018 14:00:00 14,8 11,0 24 13 W 1024,1 -
16.01.2018 13:00:00 15,0 10,8 22 12 WNW 1024,4 25
16.01.2018 12:00:00 14,8 11,2 21 11 W 1025,0 -
16.01.2018 11:00:00 17,1 9,9 16 9 W 1024,3 -
16.01.2018 10:00:00 15,1 8,7 18 10 WSW 1023,9 30
16.01.2018 09:00:00 14,2 8,2 16 9 WSW 1023,8 -
16.01.2018 08:00:00 13,9 8,3 16 9 WSW 1023,2 -
16.01.2018 07:00:00 13,5 8,8 13 7 W 1023,3 15
16.01.2018 06:00:00 14,0 9,0 18 10 W 1023,1 -
16.01.2018 05:00:00 13,4 9,8 26 14 WNW 1022,8 -
16.01.2018 04:00:00 14,7 8,4 16 9 W 1022,5 -
16.01.2018 03:00:00 15,4 8,8 29 16 W 1022,3 -
16.01.2018 02:00:00 15,9 8,9 35 19 W 1022,5 -
16.01.2018 01:00:00 15,3 8,5 24 13 W 1022,8 -
16.01.2018 00:00:00 15,3 8,5 22 12 W 1022,4 -
15.01.2018 23:00:00 14,6 8,1 22 12 WSW 1021,8 -
15.01.2018 22:00:00 14,5 7,8 16 9 WSW 1022,2 30
15.01.2018 21:00:00 14,1 7,4 18 10 SW 1021,6 -
15.01.2018 20:00:00 13,8 6,9 26 14 SW 1020,7 -
15.01.2018 19:00:00 13,2 6,3 26 14 SW 1020,6 30
15.01.2018 18:00:00 13,2 6,0 28 15 SW 1020,3 -
15.01.2018 17:00:00 13,3 5,0 26 14 SW 1020,7 -
15.01.2018 16:00:00 13,4 3,8 24 13 SW 1020,6 30
15.01.2018 15:00:00 13,1 1,6 26 14 SW 1020,8 -
15.01.2018 14:00:00 12,5 -0,2 26 14 SW 1021,6 -
15.01.2018 13:00:00 11,7 0,9 18 10 SW 1023,3 30
15.01.2018 12:00:00 10,5 1,2 21 11 SW 1023,6 -
15.01.2018 11:00:00 8,9 1,3 24 13 SW 1023,8 -
15.01.2018 10:00:00 6,6 1,5 18 10 SSW 1024,5 30
15.01.2018 09:00:00 5,8 1,3 15 8 SSW 1024,9 -
15.01.2018 08:00:00 5,9 1,2 16 9 SW 1024,5 -
15.01.2018 07:00:00 5,8 1,9 15 8 SW 1024,5 30
15.01.2018 06:00:00 6,0 1,9 13 7 SSW 1024,4 -
15.01.2018 05:00:00 5,5 2,5 16 9 SSW 1024,5 -
15.01.2018 04:00:00 5,8 2,6 15 8 SSW 1024,7 -
15.01.2018 03:00:00 6,1 2,7 13 7 SSW 1024,9 -
15.01.2018 02:00:00 6,5 3,3 15 8 SSW 1025,0 -
15.01.2018 01:00:00 6,6 3,7 13 7 SW 1025,4 -
15.01.2018 00:00:00 7,3 4,0 8 4 SW 1025,2 -
14.01.2018 23:00:00 6,6 3,8 8 4 WSW 1024,9 -
14.01.2018 22:00:00 7,5 3,9 8 4 SW 1024,0 10
14.01.2018 21:00:00 9,1 4,5 15 8 W 1023,5 -
14.01.2018 20:00:00 8,7 4,5 9 5 WSW 1023,2 -
14.01.2018 19:00:00 8,8 4,8 11 6 WSW 1022,6 10
14.01.2018 18:00:00 9,7 5,1 11 6 W 1021,8 -
14.01.2018 17:00:00 10,3 4,6 11 6 W 1021,1 -
14.01.2018 16:00:00 10,7 5,0 18 10 WNW 1020,3 -
14.01.2018 15:00:00 10,5 5,6 18 10 WNW 1020,3 -
14.01.2018 14:00:00 10,3 4,8 11 6 W 1020,2 -
14.01.2018 13:00:00 10,2 5,1 8 4 W 1020,7 10
14.01.2018 12:00:00 9,6 5,7 9 5 WSW 1020,8 -
14.01.2018 11:00:00 7,0 4,6 15 8 SW 1020,2 -
14.01.2018 10:00:00 6,6 4,1 9 5 SW 1019,8 10
14.01.2018 09:00:00 6,3 3,6 2 1 SW 1019,2 -
14.01.2018 08:00:00 6,0 3,0 9 5 SW 1018,5 -
14.01.2018 07:00:00 5,7 2,9 9 5 SW 1018,1 10
14.01.2018 06:00:00 6,5 2,6 11 6 SW 1017,9 -
14.01.2018 05:00:00 7,1 2,8 11 6 SW 1017,9 -
14.01.2018 04:00:00 6,9 2,8 8 4 SW 1017,8 -
14.01.2018 03:00:00 6,7 2,8 11 6 SSW 1017,4 -
14.01.2018 02:00:00 6,5 2,6 9 5 SW 1017,5 -
14.01.2018 01:00:00 6,7 2,8 11 6 SW 1017,6 -
14.01.2018 00:00:00 7,1 3,0 15 8 SW 1017,3 -
13.01.2018 23:00:00 7,5 3,3 8 4 SSW 1017,3 -
13.01.2018 22:00:00 7,4 3,6 9 5 SW 1017,0 15
13.01.2018 21:00:00 7,8 3,8 11 6 SW 1016,6 -
13.01.2018 20:00:00 8,0 4,9 9 5 SW 1016,2 -
13.01.2018 19:00:00 8,7 5,1 8 4 WSW 1015,8 20
13.01.2018 18:00:00 10,1 4,7 22 12 W 1015,1 -
13.01.2018 17:00:00 11,1 5,4 15 8 W 1014,3 -
13.01.2018 16:00:00 10,6 6,2 11 6 W 1014,2 20
13.01.2018 15:00:00 9,8 6,3 5 3 SW 1014,1 -
13.01.2018 14:00:00 9,5 6,0 9 5 WSW 1014,1 -
13.01.2018 13:00:00 9,1 5,8 9 5 SW 1015,0 15
13.01.2018 12:00:00 8,8 6,1 11 6 SW 1015,2 -
13.01.2018 11:00:00 8,1 5,9 16 9 SSW 1015,1 -
13.01.2018 10:00:00 6,9 5,7 18 10 SSW 1014,9 12
13.01.2018 09:00:00 6,7 5,3 0 0 N 1014,3 -
13.01.2018 08:00:00 6,5 5,1 4 2 SW 1014,5 -
13.01.2018 07:00:00 6,4 5,2 9 5 SSW 1014,1 5
13.01.2018 06:00:00 6,3 5,1 13 7 S 1014,5 -
13.01.2018 05:00:00 6,6 4,8 8 4 SW 1015,1 -
13.01.2018 04:00:00 7,6 4,0 9 5 WSW 1015,3 -
13.01.2018 03:00:00 7,8 3,8 9 5 SW 1014,9 -
13.01.2018 02:00:00 8,4 3,4 13 7 SSW 1015,2 -
13.01.2018 01:00:00 6,8 4,3 16 9 SSW 1016,6 -
13.01.2018 00:00:00 7,7 3,9 11 6 SSW 1017,6 -
12.01.2018 23:00:00 8,0 4,8 15 8 SSW 1018,5 -
12.01.2018 22:00:00 8,1 4,7 11 6 SSW 1018,9 20
12.01.2018 21:00:00 7,6 4,0 8 4 S 1019,2 -
12.01.2018 20:00:00 8,0 4,8 11 6 S 1019,8 -
12.01.2018 19:00:00 6,9 5,4 5 3 S 1020,6 28
12.01.2018 18:00:00 8,8 5,9 4 2 E 1021,1 -
12.01.2018 17:00:00 10,5 7,0 0 0 N 1021,6 -
12.01.2018 16:00:00 10,8 6,0 0 0 N 1022,0 40
12.01.2018 15:00:00 10,3 5,5 4 2 S 1022,5 -
12.01.2018 14:00:00 10,5 6,0 4 2 SSW 1023,1 -
12.01.2018 13:00:00 8,9 5,5 9 5 SSW 1024,1 35
12.01.2018 12:00:00 7,8 4,7 15 8 SSW 1025,3 -
12.01.2018 11:00:00 6,9 4,7 11 6 SW 1025,7 -
12.01.2018 10:00:00 6,1 4,6 16 9 SSW 1025,5 28
12.01.2018 09:00:00 6,0 4,5 11 6 SSW 1025,4 -
12.01.2018 08:00:00 6,5 4,8 13 7 SSW 1025,7 -
12.01.2018 07:00:00 6,6 4,8 9 5 SSW 1025,7 20

tt = temperature
td = dewpoint
ff = wind speed
dd = wind direction
ppp = reduced air pressure
vv = visibility

Next stations